Home   Weather   Munich   Past weeks

Flag for Germany Past Weather in Munich, Bavaria, Germany — Yesterday and Last 2 Weeks

Now
1 °F

Ice fog.


Feels Like: 1 °F
Forecast: 6 / 15 °F
Wind: 2 mph from South

Location: Munich / Franz Josef Strauss Airport

Current Time: Jan 23, 2017 at 1:51:19 am

Latest Report: Jan 23, 2017 at 12:50 am


Visibility: 1 mi

Pressure: 30.21 "Hg (28.16 "Hg at 526m altitude)

Humidity: 85%

Dew Point: -2 °F

Location of MunichLocation

Past Weather in Munich — Graph

°F

Munich Temperature Yesterday

Maximum temperature yesterday: 19 °F (at 3:20 pm)
Minimum temperature yesterday: 1 °F (at 4:50 am)
Average temperature yesterday: 9 °F

High & Low Weather Summary for the Past Weeks

 TemperatureHumidityPressure
High39 °F (Jan 12, 12:50 pm)100% (Jan 8, 12:20 am)30.51 "Hg (Jan 8, 12:20 am)
Low1 °F (Jan 22, 4:50 am)51% (Jan 20, 1:20 pm)29.39 "Hg (Jan 13, 1:50 am)
Average24 °F86%30.15 "Hg
* Reported Jan 8 12:20 am — Jan 23 12:50 am, Munich, Weather by CustomWeather, © 2017

Note: Actual official high and low records may vary slightly from our data, if they occured in-between our weather recording intervals... More about our weather records

Advertising

Munich Weather History for the Previous 24 Hours

Scroll right to see more
 ConditionsComfort  
Time TempWeatherWind HumidityBarometerVisibility
12:50 am
Mon, Jan 23
1 °FIce fog.2 mph85%30.21 "Hg1 mi
12:20 am1 °FIce fog.2 mph85%30.21 "Hg1 mi
11:50 pm
Sun, Jan 22
1 °FIce fog.No wind85%30.21 "Hg1 mi
11:20 pm1 °FIce fog.2 mph92%30.21 "Hg1 mi
10:50 pm5 °FIce fog.2 mph85%30.21 "Hg1 mi
10:20 pm7 °FIce fog.2 mph85%30.21 "Hg1 mi
9:50 pm3 °FIce fog.3 mph85%30.21 "Hg1 mi
9:20 pm9 °FIce fog.1 mph85%30.21 "Hg1 mi
8:50 pm5 °FIce fog.2 mph85%30.21 "Hg1 mi
8:20 pm5 °FIce fog.3 mph92%30.21 "Hg1 mi
7:50 pm7 °FIce fog.1 mph85%30.21 "Hg1 mi
7:20 pm7 °FIce fog.3 mph85%30.21 "Hg2 mi
6:50 pm7 °FIce fog.2 mph92%30.21 "Hg2 mi
6:20 pm9 °FIce fog.1 mph92%30.21 "Hg2 mi
5:50 pm10 °FIce fog.1 mph92%30.21 "Hg2 mi
5:20 pm12 °FIce fog.2 mph85%30.21 "Hg2 mi
4:50 pm14 °FIce fog.No wind92%30.21 "Hg2 mi
4:20 pm16 °FIce fog.1 mph86%30.21 "Hg2 mi
3:50 pm18 °FIce fog.1 mph86%30.21 "Hg2 mi
3:20 pm19 °FHaze.2 mph79%30.21 "Hg2 mi
2:50 pm18 °FIce fog.1 mph79%30.21 "Hg2 mi
2:20 pm18 °FIce fog.1 mph79%30.21 "Hg2 mi
1:50 pm18 °FIce fog.1 mph86%30.21 "Hg2 mi
1:20 pm16 °FIce fog.1 mph86%30.24 "Hg1 mi
12:50 pm14 °FIce fog.1 mph85%30.24 "Hg1 mi
12:20 pm12 °FIce fog.2 mph85%30.27 "Hg1 mi
11:50 am12 °FSnow flurries. Ice fog.1 mph85%30.27 "Hg1 mi
11:20 am12 °FCold.2 mph85%30.27 "Hg1 mi
10:50 am10 °FCold.2 mph85%30.30 "Hg1 mi
10:20 am9 °FFrigid.1 mph92%30.27 "Hg1 mi
9:50 am10 °FSnow. Cloudy.2 mph85%30.27 "Hg0 mi
9:20 am9 °FIce fog.1 mph92%30.30 "Hg0 mi
8:50 am9 °FIce fog.2 mph92%30.30 "Hg0 mi
8:20 am9 °FIce fog.3 mph92%30.27 "Hg0 mi
7:50 am9 °FIce fog.3 mph92%30.27 "Hg0 mi
7:20 am9 °FIce fog.1 mph92%30.27 "Hg0 mi
6:50 am9 °FSnow. Overcast.No wind92%30.27 "Hg1 mi
6:20 am9 °FSnow. Overcast.1 mph92%30.27 "Hg1 mi
5:50 am5 °FSnow. Overcast.1 mph92%30.27 "Hg1 mi
5:20 am3 °FSnow. Overcast.3 mph92%30.30 "Hg1 mi
4:50 am1 °FSnow. Overcast.2 mph92%30.30 "Hg1 mi
4:20 am3 °FFrigid.1 mph85%30.30 "Hg1 mi
3:50 am3 °FFrigid.1 mph85%30.30 "Hg1 mi
3:20 am5 °FFrigid.No wind85%30.30 "Hg1 mi
2:50 am5 °FFrigid.1 mph92%30.30 "Hg1 mi
2:20 am5 °FFrigid.1 mph85%30.30 "Hg1 mi
1:50 am7 °FFrigid.1 mph85%30.30 "Hg1 mi
1:20 am7 °FFrigid.No wind92%30.30 "Hg1 mi
Weather by CustomWeather, © 2017

See weather overviewHow to use our weather pages